DAL234 KJFK-LLBG

Flight info

Callsign DAL234
Flight time N/A
Altitude 37000
Route HAPIE DCT YAHOO DCT WHALE N339B JOOPY/M085F370 DCT 49N050W 51N040W 52N030W 52N020W DCT DINIM DCT ELSOX DCT LULOX/N0488F370 DCT LIZAD/N0485F390 DCT JSY DCT TURDU DCT TADUP DCT TEPRI/N0486F410 UN491 POGZI DCT GELTA DCT LUVAL DCT SHARA DCT DEVDI DCT RIPUS DCT RESIA DCT TULIK DCT PUL DCT VELIT DCT RETRA DCT TALAS UN130 ESOPO DCT MES UL609 ALKIS L609 APLON DCT PIKOG L609 ZUKKO
Aircraft A359/H-SDE2E3GHIJ3J4J5LM1ORWXY/LB1D1

Departure

Time 2026-05-08 23:59
Airport John F. Kennedy International Airport (KJFK)

Arrival

Time N/A
Airport Ben Gurion International Airport (LLBG)
Time Latitude Longitude Altitude Speed Heading
2026-05-08 23:34 40.63983 -73.78248 27 ft 0 kts 62°
2026-05-08 23:43 40.63981 -73.78254 26 ft 3 kts 62°
2026-05-08 23:43 40.63968 -73.78285 26 ft 4 kts 62°
2026-05-08 23:44 40.63956 -73.78312 24 ft 4 kts 67°
2026-05-08 23:44 40.63954 -73.78339 25 ft 4 kts 133°
2026-05-08 23:44 40.63975 -73.78357 25 ft 3 kts 152°
2026-05-08 23:44 40.63979 -73.78359 25 ft 0 kts 151°
2026-05-08 23:47 40.63913 -73.78312 27 ft 27 kts 161°
2026-05-08 23:47 40.63727 -73.78274 27 ft 19 kts 171°
2026-05-08 23:47 40.63611 -73.78257 27 ft 15 kts 179°
2026-05-08 23:48 40.63600 -73.78258 27 ft 0 kts 186°
2026-05-08 23:48 40.63547 -73.78280 27 ft 17 kts 205°
2026-05-08 23:49 40.63439 -73.78293 28 ft 14 kts 124°
2026-05-08 23:49 40.63388 -73.78186 28 ft 17 kts 128°
2026-05-08 23:49 40.63331 -73.78033 27 ft 18 kts 101°
2026-05-08 23:49 40.63348 -73.77882 28 ft 16 kts 63°
2026-05-08 23:50 40.63424 -73.77774 28 ft 19 kts 35°
2026-05-08 23:50 40.63543 -73.77678 26 ft 21 kts 31°
2026-05-08 23:50 40.63618 -73.77556 27 ft 16 kts 112°
2026-05-08 23:50 40.63563 -73.77432 28 ft 17 kts 122°
2026-05-08 23:51 40.63487 -73.77267 27 ft 22 kts 121°
2026-05-08 23:51 40.63410 -73.77091 26 ft 22 kts 120°
2026-05-08 23:51 40.63311 -73.76946 26 ft 21 kts 168°
2026-05-08 23:51 40.63200 -73.76940 26 ft 15 kts 178°
2026-05-08 23:52 40.63100 -73.76969 26 ft 15 kts 205°
2026-05-08 23:52 40.63065 -73.76995 26 ft 0 kts 213°
2026-05-08 23:53 40.63062 -73.76998 26 ft 3 kts 213°
2026-05-08 23:53 40.63036 -73.77020 26 ft 5 kts 213°
2026-05-08 23:54 40.63000 -73.77046 27 ft 7 kts 208°
2026-05-08 23:54 40.62973 -73.77066 27 ft 0 kts 210°
2026-05-08 23:55 40.62964 -73.77073 27 ft 5 kts 210°
2026-05-08 23:56 40.62933 -73.77096 27 ft 5 kts 211°
2026-05-08 23:56 40.62911 -73.77114 27 ft 0 kts 211°
2026-05-08 23:57 40.62895 -73.77126 32 ft 10 kts 211°
2026-05-08 23:57 40.62830 -73.77177 28 ft 10 kts 217°
2026-05-08 23:57 40.62829 -73.77241 28 ft 7 kts 298°
2026-05-08 23:58 40.62842 -73.77272 28 ft 0 kts 301°
2026-05-08 23:58 40.62901 -73.77399 30 ft 45 kts 301°
2026-05-08 23:58 40.63170 -73.77991 30 ft 104 kts 301°
2026-05-08 23:59 40.63631 -73.79014 29 ft 154 kts 301°
2026-05-08 23:59 40.64255 -73.80379 164 ft 184 kts 302°
2026-05-08 23:59 40.64823 -73.81842 768 ft 175 kts 282°
2026-05-08 23:59 40.64643 -73.83344 1480 ft 171 kts 241°
2026-05-09 00:00 40.63720 -73.84287 2107 ft 172 kts 212°
2026-05-09 00:00 40.62646 -73.85037 2542 ft 180 kts 211°
2026-05-09 00:00 40.61609 -73.86080 2804 ft 194 kts 228°
2026-05-09 00:00 40.60606 -73.87351 3185 ft 205 kts 221°
2026-05-09 00:01 40.59293 -73.88149 3690 ft 215 kts 194°
2026-05-09 00:01 40.57752 -73.87954 4025 ft 237 kts 163°
2026-05-09 00:01 40.56344 -73.86631 4220 ft 265 kts 132°
2026-05-09 00:01 40.55512 -73.84434 4600 ft 280 kts 105°
2026-05-09 00:02 40.55163 -73.81886 5143 ft 287 kts 98°
2026-05-09 00:02 40.54859 -73.79257 5676 ft 294 kts 104°
2026-05-09 00:02 40.54409 -73.76616 6276 ft 299 kts 105°
2026-05-09 00:02 40.53919 -73.73927 6844 ft 305 kts 106°
2026-05-09 00:03 40.53401 -73.71213 7498 ft 308 kts 106°
2026-05-09 00:03 40.52861 -73.68464 8168 ft 311 kts 107°
2026-05-09 00:03 40.52309 -73.65691 8853 ft 315 kts 107°
2026-05-09 00:03 40.51745 -73.62883 9483 ft 321 kts 106°
2026-05-09 00:04 40.51170 -73.60021 10088 ft 326 kts 106°
2026-05-09 00:04 40.50579 -73.57076 10455 ft 342 kts 105°
2026-05-09 00:04 40.49957 -73.53973 10722 ft 359 kts 105°
2026-05-09 00:04 40.49306 -73.50716 11000 ft 377 kts 105°
2026-05-09 00:05 40.48626 -73.47321 11273 ft 393 kts 105°
2026-05-09 00:05 40.47926 -73.43825 11527 ft 408 kts 104°
2026-05-09 00:05 40.47187 -73.40145 11829 ft 421 kts 104°
2026-05-09 00:05 40.46431 -73.36390 12334 ft 429 kts 104°
2026-05-09 00:06 40.45660 -73.32570 12872 ft 435 kts 104°
2026-05-09 00:06 40.44879 -73.28710 13398 ft 441 kts 103°
2026-05-09 00:06 40.44085 -73.24793 13917 ft 447 kts 103°